DW4236 Weather Reports


Display with metric or nautical units.
time (UTC)temp
F
wind
direction
speed
MPH
gust
MPH
rain 1hr
in
rain 24hr
in
rain mn
in
humidity
%
barometer
mb
20260502235104 55 59 2.0 3.0 0.00 0.10 0.10 42 1012.4
20260502234604 55 40 2.0 8.0 0.00 0.10 0.10 41 1012.4
20260502234104 55 77 3.0 9.0 0.00 0.10 0.10 41 1012.4
20260502233605 55 353 2.0 5.0 0.00 0.10 0.10 42 1012.4
20260502233105 55 1 2.0 10.0 0.00 0.10 0.10 40 1012.3
20260502232604 56 48 5.0 12.0 0.00 0.10 0.10 41 1012.2
20260502232105 56 9 4.0 12.0 0.00 0.10 0.10 41 1012.2
20260502231605 56 9 5.0 12.0 0.00 0.10 0.10 40 1012.3
20260502231105 56 25 7.0 16.0 0.00 0.10 0.10 39 1012.2
20260502230604 56 31 5.0 9.0 0.00 0.10 0.10 40 1012.2
20260502230104 56 37 3.0 12.0 0.00 0.10 0.10 41 1012.2
20260502224604 56 344 3.0 7.0 0.00 0.10 0.10 40 1012.1
20260502224104 56 342 3.0 9.0 0.00 0.10 0.10 41 1012.0
20260502223104 57 340 4.0 7.0 0.00 0.10 0.10 41 1011.9
20260502222104 57 355 3.0 6.0 0.00 0.10 0.10 41 1011.9
20260502221104 57 34 2.0 7.0 0.00 0.10 0.10 41 1011.8
20260502220605 57 19 5.0 12.0 0.00 0.10 0.10 38 1011.6
20260502220104 57 358 5.0 10.0 0.00 0.10 0.10 39 1011.6
20260502214604 58 349 3.0 9.0 0.00 0.10 0.10 39 1011.5
20260502213104 59 21 5.0 10.0 0.00 0.10 0.10 39 1011.5
20260502212604 59 309 6.0 10.0 0.00 0.10 0.10 37 1011.4
20260502212104 59 343 5.0 12.0 0.00 0.10 0.10 39 1011.4
20260502211104 58 35 0.0 2.0 0.00 0.10 0.10 50 1011.3
20260502210105 60 57 0.0 3.0 0.00 0.10 0.10 49 1011.2
20260502205106 60 121 1.0 5.0 0.00 0.10 0.10 55 1011.1
20260502204605 58 128 2.0 7.0 0.00 0.10 0.10 54 1011.1
20260502204104 58 132 2.0 5.0 0.00 0.10 0.10 54 1011.1
20260502203104 58 163 4.0 8.0 0.00 0.10 0.10 51 1011.2
20260502202605 58 126 3.0 6.0 0.00 0.10 0.10 54 1011.4
20260502202105 58 131 2.0 3.0 0.00 0.10 0.10 55 1011.4
20260502201604 58 114 2.0 5.0 0.00 0.10 0.10 56 1011.5
20260502201105 57 128 3.0 5.0 0.00 0.10 0.10 55 1011.5
20260502200605 57 124 2.0 5.0 0.00 0.10 0.10 55 1011.6
20260502200106 57 124 3.0 5.0 0.00 0.10 0.10 55 1011.7
20260502195604 57 139 2.0 9.0 0.00 0.10 0.10 55 1011.7
20260502195104 57 37 2.0 7.0 0.00 0.10 0.10 56 1011.7
20260502194604 58 120 3.0 12.0 0.00 0.10 0.10 55 1011.8
20260502194104 58 209 1.0 3.0 0.00 0.10 0.10 55 1011.7
20260502193104 58 191 2.0 3.0 0.00 0.10 0.10 56 1011.9
20260502192604 57 177 0.0 3.0 0.00 0.10 0.10 62 1012.0
20260502192105 57 190 2.0 6.0 0.00 0.10 0.10 63 1012.1
20260502191604 57 185 1.0 3.0 0.00 0.10 0.10 64 1012.2
20260502191105 57 185 3.0 7.0 0.00 0.10 0.10 61 1012.2
20260502190605 56 160 1.0 3.0 0.00 0.10 0.10 64 1012.2
20260502190104 56 155 2.0 6.0 0.00 0.10 0.10 66 1012.3
20260502185604 56 111 3.0 6.0 0.00 0.10 0.10 64 1012.4
20260502185104 56 138 2.0 6.0 0.00 0.10 0.10 65 1012.4
20260502184605 56 139 2.0 3.0 0.00 0.10 0.10 67 1012.5
20260502184105 56 159 2.0 5.0 0.00 0.10 0.10 66 1012.5
20260502183604 57 128 5.0 10.0 0.00 0.10 0.10 67 1012.6
20260502183104 58 183 3.0 10.0 0.00 0.10 0.10 66 1012.5
20260502182104 57 192 1.0 5.0 0.00 0.10 0.10 70 1012.6
20260502181604 56 103 2.0 6.0 0.00 0.10 0.10 71 1012.7
20260502181104 56 131 4.0 12.0 0.00 0.10 0.10 70 1012.6
20260502180604 56 89 6.0 12.0 0.00 0.10 0.10 69 1012.6
20260502180104 56 85 3.0 10.0 0.00 0.10 0.10 70 1012.5
20260502170104 54 135 4.0 8.0 0.00 0.10 0.10 75 1013.2
20260502164104 54 99 4.0 10.0 0.00 0.10 0.10 78 1013.4
20260502163105 51 142 2.0 8.0 0.00 0.10 0.10 79 1013.6
20260502162605 51 186 4.0 9.0 0.00 0.10 0.10 79 1013.6
20260502162105 51 142 5.0 8.0 0.00 0.10 0.10 79 1013.7
20260502161604 51 100 3.0 9.0 0.00 0.10 0.10 79 1013.6
20260502150604 52 20 3.0 6.0 0.00 0.10 0.10 77 1013.8
20260502150104 52 28 1.0 3.0 0.00 0.10 0.10 78 1013.8
20260502140104 49 312 3.0 9.0 0.00 0.10 0.10 82 1013.8
20260502130104 50 317 4.0 9.0 0.00 0.10 0.10 90 1013.8
20260502123104 49 310 2.0 6.0 0.00 0.10 0.10 93 1013.6
20260502122603 49 302 3.0 8.0 0.00 0.10 0.10 93 1013.6
20260502122104 49 283 2.0 6.0 0.00 0.10 0.10 93 1013.6
20260502121604 49 303 3.0 6.0 0.00 0.10 0.10 93 1013.5
20260502121106 49 307 3.0 5.0 0.00 0.10 0.10 93 1013.6
20260502120604 49 327 0.0 3.0 0.00 0.10 0.10 94 1013.5
20260502115604 49 344 0.0 3.0 0.00 0.10 0.10 94 1013.7
20260502115104 49 290 1.0 6.0 0.00 0.10 0.10 94 1013.7
20260502114605 49 316 3.0 7.0 0.00 0.10 0.10 94 1013.6
20260502113604 49 314 1.0 6.0 0.00 0.10 0.10 94 1013.6
20260502113104 49 304 2.0 3.0 0.00 0.10 0.10 94 1013.6
20260502112605 49 346 1.0 3.0 0.00 0.10 0.10 94 1013.5
20260502111604 48 354 0.0 2.0 0.00 0.10 0.10 94 1013.4
20260502111105 48 354 1.0 3.0 0.00 0.10 0.10 94 1013.5
20260502110605 48 355 0.0 2.0 0.00 0.10 0.10 94 1013.3
20260502105104 47 355 0.0 0.0 0.00 0.10 0.10 94 1013.2
20260502104604 47 355 0.0 0.0 0.00 0.10 0.10 93 1013.1
20260502104103 47 355 0.0 0.0 0.00 0.10 0.10 93 1013.1
20260502103604 47 355 0.0 0.0 0.00 0.10 0.10 93 1013.0
20260502103104 47 355 0.0 0.0 0.01 0.10 0.10 93 1012.8
20260502102104 48 355 0.0 0.0 0.01 0.10 0.10 93 1012.9
20260502101604 48 355 0.0 0.0 0.01 0.10 0.10 93 1012.9
20260502101103 48 355 0.0 0.0 0.02 0.10 0.10 93 1012.8
20260502100604 48 355 0.0 0.0 0.02 0.10 0.10 93 1012.8
20260502100105 48 355 0.0 0.0 0.02 0.10 0.10 93 1012.9
20260502091105 48 355 0.0 0.0 0.06 0.08 0.08 93 1012.6
20260502090604 48 355 0.0 0.0 0.06 0.08 0.08 92 1012.7
20260502090104 48 355 0.0 0.0 0.06 0.08 0.08 92 1012.8
20260502080104 49 356 0.0 0.0 0.00 0.02 0.02 91 1012.6
20260502071103 49 356 0.0 0.0 0.00 0.02 0.02 90 1013.3
20260502070604 49 356 0.0 0.0 0.01 0.02 0.02 90 1013.4
20260502070104 49 356 0.0 0.0 0.01 0.02 0.02 90 1013.4
20260502065604 49 356 0.0 0.0 0.02 0.02 0.02 90 1013.4
20260502064605 49 356 0.0 0.0 0.02 0.02 0.02 89 1013.4
20260502064104 49 356 0.0 1.0 0.02 0.02 0.02 89 1013.5
20260502063604 49 348 2.0 3.0 0.02 0.02 0.02 89 1013.6
20260502063105 49 316 1.0 3.0 0.02 0.02 0.02 89 1013.6
20260502062603 49 316 0.0 2.0 0.02 0.02 0.02 89 1013.4
20260502061603 49 316 0.0 2.0 0.02 0.02 0.02 88 1013.4
20260502061104 50 316 1.0 2.0 0.02 0.02 0.02 88 1013.6
20260502055605 50 317 0.0 0.0 0.00 0.00 0.00 88 1013.5
20260502055104 50 317 0.0 0.0 0.00 0.00 0.00 87 1013.3
20260502054604 50 317 0.0 0.0 0.00 0.00 0.00 86 1013.2
20260502053604 50 317 0.0 0.0 0.00 0.00 0.00 85 1013.2
20260502052604 51 317 0.0 2.0 0.00 0.00 0.00 85 1013.3
20260502052104 51 317 0.0 1.0 0.00 0.00 0.00 84 1013.3
20260502051604 51 317 1.0 2.0 0.00 0.00 0.00 84 1013.6
20260502050605 51 295 0.0 2.0 0.00 0.00 0.00 84 1013.5
20260502045604 51 295 0.0 0.0 0.00 0.00 0.00 83 1013.1
20260502045104 51 295 0.0 0.0 0.00 0.00 0.00 83 1013.0
20260502044605 51 295 0.0 0.0 0.00 0.00 0.00 82 1013.0
20260502044104 51 295 0.0 0.0 0.00 0.00 0.00 82 1013.0
20260502043103 51 295 0.0 0.0 0.00 0.00 0.00 81 1012.9
20260502042604 51 295 0.0 0.0 0.00 0.00 0.00 81 1013.1
20260502042104 51 295 0.0 0.0 0.00 0.00 0.00 81 1013.3
20260502041604 51 295 0.0 0.0 0.00 0.00 0.00 80 1013.2
20260502041104 51 295 0.0 0.0 0.00 0.00 0.00 80 1013.1
20260502040105 51 295 0.0 0.0 0.00 0.00 0.00 80 1013.1
20260502035104 51 295 0.0 0.0 0.00 0.00 0.00 80 1013.1
20260502034604 51 295 0.0 0.0 0.00 0.00 0.00 80 1012.9
20260502034103 51 295 0.0 0.0 0.00 0.00 0.00 79 1012.9
20260502033604 51 295 0.0 0.0 0.00 0.00 0.00 79 1013.1
20260502033105 51 295 0.0 0.0 0.00 0.00 0.00 79 1013.0
20260502032104 51 295 0.0 0.0 0.00 0.00 0.00 78 1013.1
20260502031604 51 295 0.0 0.0 0.00 0.00 0.00 78 1013.1
20260502031104 51 295 0.0 0.0 0.00 0.00 0.00 78 1013.0
20260502030604 51 295 0.0 0.0 0.00 0.00 0.00 78 1013.2
20260502030105 51 295 0.0 0.0 0.00 0.00 0.00 78 1013.3
20260502025604 51 295 0.0 0.0 0.00 0.00 0.00 78 1013.3
20260502025104 51 295 0.0 0.0 0.00 0.00 0.00 78 1013.3
20260502024603 51 295 0.0 0.0 0.00 0.00 0.00 77 1013.3
20260502024104 51 295 0.0 1.0 0.00 0.00 0.00 77 1013.3
20260502023604 51 295 0.0 2.0 0.00 0.00 0.00 76 1013.2
20260502023104 51 295 0.0 0.0 0.00 0.00 0.00 76 1013.2
20260502021604 51 295 0.0 0.0 0.00 0.00 0.00 74 1013.1
20260502021103 51 295 0.0 0.0 0.00 0.00 0.00 74 1013.0
20260502020603 51 295 0.0 0.0 0.00 0.00 0.00 74 1013.2
20260502020105 51 295 0.0 0.0 0.00 0.00 0.00 73 1013.1
20260502015604 51 295 0.0 0.0 0.00 0.00 0.00 72 1013.0
20260502015103 52 295 0.0 0.0 0.00 0.00 0.00 71 1012.8
20260502014603 52 295 0.0 0.0 0.00 0.00 0.00 71 1012.8
20260502014105 52 295 0.0 0.0 0.00 0.00 0.00 70 1012.8
20260502013603 52 295 0.0 0.0 0.00 0.00 0.00 69 1012.7
20260502012604 53 295 0.0 0.0 0.00 0.00 0.00 68 1012.8
20260502012104 53 295 0.0 0.0 0.00 0.00 0.00 67 1012.8
20260502011104 54 295 0.0 0.0 0.00 0.00 0.00 65 1012.8
20260502010604 54 295 0.0 1.0 0.00 0.00 0.00 63 1012.8
20260502010103 55 295 0.0 0.0 0.00 0.00 0.00 62 1012.8
20260502005604 55 295 0.0 0.0 0.00 0.00 0.00 62 1012.8
20260502005104 55 295 0.0 2.0 0.00 0.00 0.00 62 1012.9
20260502004105 56 295 0.0 1.0 0.00 0.00 0.00 61 1012.7
20260502003605 56 295 0.0 0.0 0.00 0.00 0.00 59 1012.6
20260502003104 57 295 0.0 0.0 0.00 0.00 0.00 57 1012.5
20260502002605 57 295 0.0 2.0 0.00 0.00 0.00 57 1012.4
20260502002105 57 295 0.0 2.0 0.00 0.00 0.00 56 1012.3
20260502001105 57 295 1.0 5.0 0.00 0.00 0.00 56 1012.3
20260502000604 58 286 1.0 3.0 0.00 0.00 0.00 57 1012.3
20260502000104 58 283 1.0 6.0 0.00 0.00 0.00 57 1012.3
20260501235603 58 232 1.0 2.0 0.00 0.00 0.00 55 1012.4